Date,TemperatureHighF,TemperatureAvgF,TemperatureLowF,DewpointHighF,DewpointAvgF,DewpointLowF,HumidityHigh,HumidityAvg,HumidityLow,PressureMaxIn,PressureMinIn,WindSpeedMaxMPH,WindSpeedAvgMPH,GustSpeedMaxMPH,PrecipitationSumIn
2013-1-1,19.0,12.1,3.0,18.0,11.3,3.0,98,96,92,29.07,28.87,9,2,0,0.00
2013-1-2,34.0,23.6,11.0,33.0,23.0,11.0,99,97,94,28.98,28.80,8,3,0,0.00
2013-1-3,31.0,23.5,17.0,30.0,22.8,17.0,98,96,94,29.18,28.98,13,6,0,0.00
2013-1-4,29.0,20.3,14.0,26.0,19.4,14.0,100,96,90,29.07,28.90,11,4,0,0.00
2013-1-5,32.0,22.8,16.0,30.0,21.8,16.0,100,96,90,28.97,28.77,15,6,0,0.00
2013-1-6,30.0,22.4,13.0,28.0,21.5,13.0,100,96,92,29.08,28.88,16,4,0,0.00
2013-1-7,37.0,31.1,19.0,35.0,29.6,19.0,100,94,90,28.88,28.73,17,5,0,0.00
2013-1-8,36.0,27.1,15.0,34.0,26.4,15.0,100,97,93,28.88,28.61,15,3,0,0.00
2013-1-9,40.0,31.2,22.0,37.0,30.3,22.0,100,96,88,29.18,28.88,9,1,0,0.00
2013-1-10,39.0,34.8,28.0,37.0,33.7,28.0,100,96,82,29.10,28.46,13,4,0,0.00
2013-1-11,49.0,38.7,27.0,49.0,38.6,26.0,100,100,94,28.49,28.17,24,6,0,0.00
2013-1-12,33.0,19.3,12.0,31.0,16.7,10.0,94,89,83,28.91,28.49,24,10,0,0.00
2013-1-13,21.0,13.6,8.0,16.0,11.2,7.0,95,90,79,29.08,28.90,14,6,0,0.00
2013-1-14,27.0,17.4,8.0,22.0,15.3,8.0,98,92,78,29.21,29.08,8,2,0,0.00
2013-1-15,34.0,23.2,14.0,30.0,21.2,14.0,99,92,83,29.10,28.82,12,5,0,0.00
2013-1-16,51.0,35.4,22.0,43.0,32.5,21.0,97,90,72,29.00,28.68,11,6,0,0.00
2013-1-17,34.0,28.7,25.0,33.0,28.7,25.0,100,100,96,29.21,29.00,6,0,0,0.00
2013-1-18,47.0,37.3,29.0,41.0,35.1,29.0,100,92,80,29.05,28.66,16,6,0,0.00
2013-1-19,52.0,38.2,23.0,43.0,34.6,21.0,98,88,71,29.11,28.64,16,6,0,0.00
2013-1-20,23.0,17.5,14.0,21.0,15.3,13.0,96,90,82,29.18,29.08,13,4,0,0.00
2013-1-21,16.0,11.0,6.0,15.0,6.8,2.0,96,83,75,29.21,29.11,15,6,0,0.00
2013-1-22,20.0,13.9,10.0,18.0,12.6,8.0,98,95,87,29.13,29.00,8,3,0,0.00
2013-1-23,29.0,18.3,11.0,26.0,16.6,9.0,98,94,86,29.26,28.91,13,5,0,0.00
2013-1-24,19.0,10.5,3.0,15.0,7.3,1.0,92,87,79,29.30,28.94,15,8,0,0.00
2013-1-25,47.0,28.5,14.0,38.0,24.9,13.0,96,87,69,29.00,28.87,10,2,0,0.00
2013-1-26,48.0,31.4,19.0,39.0,28.0,18.0,97,88,70,29.01,28.77,18,8,0,0.00
2013-1-27,41.0,38.2,36.0,41.0,37.5,34.0,100,97,84,28.77,28.48,17,6,0,0.00
2013-1-28,42.0,37.9,35.0,42.0,37.9,35.0,100,100,100,28.64,28.35,5,0,0,0.00
2013-1-29,39.0,34.4,33.0,39.0,34.0,32.0,100,99,95,28.49,28.35,14,8,0,0.00
2013-1-30,33.0,23.1,16.0,32.0,22.0,15.0,100,95,90,28.70,28.43,18,9,0,0.00
2013-1-31,10.0,6.4,2.0,6.0,3.8,0.0,92,89,84,29.18,28.85,19,12,0,0.00
2013-2-1,28.0,14.1,0.0,26.0,12.4,-1.0,96,93,91,29.18,28.81,16,8,0,0.00
2013-2-2,39.0,30.1,25.0,37.0,28.8,24.0,98,95,90,28.96,28.81,12,4,0,0.00
2013-2-3,42.0,33.0,23.0,37.0,30.5,22.0,95,91,78,28.98,28.56,18,6,0,0.00
2013-2-4,38.0,27.7,23.0,36.0,27.0,23.0,99,97,91,28.80,28.56,13,5,0,0.00
2013-2-5,49.0,34.5,26.0,41.0,32.4,26.0,100,93,66,28.83,28.60,13,4,0,0.00
2013-2-6,52.0,40.1,31.0,47.0,37.7,31.0,99,91,82,28.84,28.61,17,5,0,0.00
2013-2-7,39.0,33.6,30.0,38.0,32.8,29.0,99,97,94,29.01,28.66,17,8,0,0.00
2013-2-8,33.0,28.8,25.0,32.0,28.1,25.0,100,97,94,29.09,28.89,16,7,0,0.00
2013-2-9,48.0,37.5,29.0,44.0,36.2,29.0,100,95,86,28.91,28.45,20,14,0,0.00
2013-2-10,44.0,37.3,31.0,44.0,36.3,29.0,100,96,92,28.57,28.06,20,14,0,0.00
2013-2-11,34.0,30.2,25.0,31.0,28.1,25.0,98,92,87,28.91,28.57,20,9,0,0.00
2013-2-12,48.0,31.4,22.0,37.0,28.2,22.0,100,89,56,28.91,28.67,14,4,0,0.00
2013-2-13,52.0,36.1,26.0,40.0,32.2,25.0,98,87,62,28.69,28.50,13,3,0,0.00
2013-2-14,44.0,36.0,22.0,39.0,33.4,21.0,100,90,70,29.05,28.56,21,8,0,0.00
2013-2-15,31.0,22.7,15.0,28.0,21.2,14.0,100,94,80,29.12,29.04,12,4,0,0.00
2013-2-16,34.0,23.6,12.0,32.0,22.8,12.0,100,97,92,29.10,28.78,11,5,0,0.00
2013-2-17,52.0,37.0,26.0,45.0,33.9,25.0,97,89,76,28.78,28.35,18,9,0,0.00
2013-2-18,46.0,32.5,22.0,41.0,30.5,21.0,100,92,82,28.83,28.35,26,10,0,0.00
2013-2-19,25.0,15.4,10.0,22.0,12.0,8.0,94,87,61,29.13,28.83,17,10,0,0.00
2013-2-20,25.0,13.5,5.0,18.0,10.0,3.0,95,86,73,29.14,28.96,11,6,0,0.00
2013-2-21,25.0,22.3,21.0,23.0,20.0,17.0,100,91,79,29.00,28.63,19,10,0,0.00
2013-2-22,22.0,18.6,12.0,22.0,18.0,12.0,100,97,93,28.80,28.63,11,6,0,0.00
2013-2-23,35.0,20.1,7.0,33.0,19.3,7.0,100,97,90,28.78,28.59,13,4,0,0.00
2013-2-24,38.0,30.5,23.0,35.0,29.4,23.0,99,95,87,28.85,28.65,11,3,0,0.00
2013-2-25,34.0,28.8,25.0,32.0,28.3,25.0,100,98,93,28.85,28.69,11,5,0,0.00
2013-2-26,32.0,27.8,24.0,31.0,27.5,24.0,100,99,96,28.73,28.58,13,8,0,0.00
2013-2-27,37.0,30.0,24.0,33.0,28.5,23.0,99,94,82,28.87,28.68,24,13,0,0.00
2013-2-28,32.0,27.9,25.0,30.0,26.9,24.0,98,96,93,29.00,28.87,17,10,0,0.00
2013-3-1,29.0,26.0,24.0,27.0,24.3,22.0,98,93,87,29.12,28.99,17,8,0,0.00
2013-3-2,35.0,26.0,14.0,32.0,24.1,14.0,99,92,82,29.11,28.86,11,3,0,0.00
2013-3-3,39.0,33.0,27.0,37.0,31.4,26.0,98,94,90,28.86,28.49,14,10,0,0.00
2013-3-4,39.0,34.8,31.0,36.0,32.9,29.0,99,93,85,28.80,28.44,17,7,0,0.00
2013-3-5,33.0,27.9,24.0,30.0,25.4,22.0,93,90,85,29.15,28.80,24,14,0,0.00
2013-3-6,38.0,28.3,21.0,32.0,25.7,20.0,96,90,78,29.18,28.99,11,4,0,0.00
2013-3-7,50.0,35.3,25.0,41.0,31.9,24.0,96,88,71,29.03,28.85,18,11,0,0.00
2013-3-8,54.0,41.4,30.0,47.0,38.3,29.0,98,89,76,28.94,28.68,15,9,0,0.00
2013-3-9,54.0,45.2,36.0,53.0,44.7,36.0,100,98,96,28.68,28.34,19,9,0,0.00
2013-3-10,36.0,27.9,23.0,36.0,27.9,23.0,100,100,100,28.74,28.50,27,12,0,0.00
2013-3-11,31.0,24.4,20.0,29.0,23.7,20.0,100,97,89,28.78,28.66,16,6,0,0.00
2013-3-12,33.0,28.1,19.0,31.0,26.5,19.0,100,94,90,29.08,28.78,19,6,0,0.00
2013-3-13,35.0,26.1,16.0,31.0,24.1,16.0,99,92,79,29.20,29.00,11,4,0,0.00
2013-3-14,56.0,41.9,33.0,50.0,38.8,31.0,99,89,79,29.00,28.82,12,3,0,0.00
2013-3-15,56.0,45.1,37.0,52.0,43.1,37.0,100,93,81,28.84,28.52,9,2,0,0.00
2013-3-16,40.0,32.0,28.0,40.0,30.8,27.0,100,95,91,28.94,28.64,16,7,0,0.00
2013-3-17,43.0,33.3,25.0,40.0,31.0,24.0,100,91,82,28.94,28.53,16,9,0,0.00
2013-3-18,36.0,33.8,28.0,36.0,29.5,25.0,100,85,67,28.82,28.50,21,9,0,0.00
2013-3-19,50.0,32.4,21.0,38.0,27.3,20.0,94,82,56,29.08,28.82,18,4,0,0.00
2013-3-20,35.0,25.1,17.0,25.0,19.7,13.0,94,80,65,29.17,28.88,19,8,0,0.00
2013-3-21,32.0,26.7,22.0,27.0,22.4,20.0,92,83,70,28.88,28.69,11,6,0,0.00
2013-3-22,34.0,30.8,27.0,30.0,27.4,25.0,93,87,80,28.80,28.74,10,4,0,0.00
2013-3-23,36.0,32.0,29.0,32.0,30.2,28.0,100,93,82,28.88,28.79,11,4,0,0.00
2013-3-24,30.0,27.0,25.0,30.0,26.0,24.0,100,96,91,28.87,28.81,17,11,0,0.00
2013-3-25,30.0,26.9,23.0,28.0,25.9,22.0,100,96,90,29.10,28.86,18,11,0,0.00
2013-3-26,41.0,28.3,18.0,33.0,25.5,17.0,97,89,71,29.13,28.98,8,3,0,0.00
2013-3-27,51.0,38.9,28.0,41.0,34.0,27.0,95,83,67,29.02,28.93,15,8,0,0.00
2013-3-28,57.0,44.1,30.0,44.0,38.3,29.0,99,82,59,29.01,28.91,8,2,0,0.00
2013-3-29,66.0,50.8,34.0,48.0,42.5,34.0,99,76,49,28.99,28.81,20,6,0,0.00
2013-3-30,64.0,55.3,48.0,58.0,49.2,-99.9,100,85,60,28.84,28.70,12,5,0,0.00
2013-3-31,56.0,46.6,33.0,47.0,40.7,33.0,100,82,53,28.92,28.73,15,7,0,0.00
2013-4-1,40.0,31.3,22.0,33.0,26.9,21.0,100,85,61,29.10,28.92,12,6,0,0.00
2013-4-2,51.0,38.8,26.0,40.0,32.6,25.0,96,79,62,29.09,29.00,8,1,0,0.00
2013-4-3,56.0,42.7,32.0,41.0,35.3,30.0,92,76,56,29.10,28.96,14,7,0,0.00
2013-4-4,62.0,47.0,31.0,49.0,40.1,30.0,97,78,59,28.98,28.82,10,4,0,0.00
2013-4-5,68.0,51.0,34.0,51.0,42.5,33.0,96,75,51,28.94,28.49,20,9,0,0.00
2013-4-6,69.0,58.6,51.0,53.0,50.2,46.0,91,75,55,28.56,28.38,16,9,0,0.00
2013-4-7,71.0,54.8,39.0,58.0,49.6,38.0,98,84,55,28.63,28.43,14,4,0,0.00
2013-4-8,66.0,56.9,47.0,63.0,55.8,47.0,100,96,91,28.50,28.40,15,5,0,0.00
2013-4-9,62.0,45.2,34.0,61.0,45.1,34.0,100,99,95,28.76,28.37,24,11,0,0.00
2013-4-10,37.0,35.3,32.0,37.0,35.3,32.0,100,100,99,28.78,28.57,13,5,0,0.00
2013-4-11,36.0,32.6,30.0,36.0,32.3,30.0,100,99,95,28.60,28.44,14,5,0,0.00
2013-4-12,41.0,35.4,31.0,37.0,33.6,30.0,98,94,86,28.79,28.51,15,9,0,0.00
2013-4-13,53.0,41.2,30.0,47.0,38.2,29.0,98,89,80,28.80,28.47,18,7,0,0.00
2013-4-14,65.0,52.2,43.0,58.0,48.7,42.0,97,88,73,28.47,28.12,18,9,0,0.00
2013-4-15,46.0,40.2,32.0,43.0,36.7,31.0,98,87,78,28.85,28.45,13,7,0,0.00
2013-4-16,51.0,42.7,36.0,42.0,37.8,34.0,93,83,65,29.01,28.85,13,6,0,0.00
2013-4-17,47.0,41.6,37.0,42.0,40.6,37.0,100,96,84,28.94,28.55,15,7,0,0.00
2013-4-18,37.0,34.1,32.0,37.0,33.6,32.0,100,98,94,28.69,28.51,22,13,0,0.00
2013-4-19,45.0,36.5,29.0,36.0,31.5,27.0,95,83,66,28.87,28.65,17,10,0,0.00
2013-4-20,46.0,37.0,27.0,38.0,31.5,26.0,97,82,65,29.02,28.87,17,6,0,0.00
2013-4-21,66.0,53.3,44.0,55.0,46.7,38.0,99,79,60,28.92,28.75,20,9,0,0.00
2013-4-22,50.0,42.2,34.0,50.0,42.0,33.0,100,99,96,29.00,28.74,14,5,0,0.00
2013-4-23,38.0,33.1,30.0,34.0,30.5,28.0,97,91,80,29.03,28.93,18,9,0,0.00
2013-4-24,57.0,40.4,27.0,46.0,35.0,26.0,96,83,54,28.97,28.81,18,5,0,0.00
2013-4-25,68.0,50.4,34.0,50.0,42.1,33.0,98,76,49,29.02,28.78,19,6,0,0.00
2013-4-26,70.0,58.8,51.0,58.0,51.5,45.0,96,77,60,28.96,28.79,16,9,0,0.00
2013-4-27,68.0,54.9,44.0,59.0,51.8,44.0,100,91,69,28.98,28.72,11,5,0,0.00
2013-4-28,80.0,63.7,49.0,62.0,55.9,49.0,99,79,49,28.73,28.47,17,8,0,0.00
2013-4-29,82.0,66.2,54.0,64.0,58.2,52.0,93,77,50,28.56,28.30,8,3,0,0.00
2013-4-30,73.0,67.9,60.0,64.0,57.3,51.0,79,69,60,28.67,28.27,17,8,0,0.00
2013-5-1,60.0,40.9,33.0,52.0,40.0,33.0,100,97,74,29.18,28.67,18,9,0,0.00
2013-5-2,50.0,40.2,33.0,42.0,36.8,33.0,100,88,68,29.30,29.17,16,6,0,0.00
2013-5-3,48.0,40.5,32.0,41.0,36.3,31.0,97,85,71,29.17,28.83,15,7,0,0.00
2013-5-4,43.0,39.9,36.0,43.0,39.3,36.0,100,98,89,28.92,28.77,14,9,0,0.00
2013-5-5,55.0,47.0,42.0,53.0,46.2,42.0,100,97,92,28.95,28.88,12,6,0,0.00
2013-5-6,66.0,54.2,45.0,58.0,51.5,45.0,100,91,74,28.94,28.80,8,2,0,0.00
2013-5-7,71.0,59.0,46.0,61.0,55.7,46.0,100,90,69,28.85,28.72,12,3,0,0.00
2013-5-8,65.0,61.2,58.0,63.0,59.7,56.0,98,95,92,28.75,28.68,11,3,0,0.00
2013-5-9,65.0,58.9,55.0,62.0,58.2,55.0,100,97,91,28.79,28.65,13,4,0,0.00
2013-5-10,68.0,56.5,49.0,58.0,51.2,-99.9,99,88,65,28.88,28.78,10,5,0,0.00
2013-5-11,59.0,53.6,45.0,54.0,42.4,-99.9,97,69,49,29.04,28.81,26,8,0,0.00
2013-5-12,65.0,51.7,36.0,48.0,40.4,34.0,92,68,47,29.05,28.87,6,1,0,0.00
2013-5-13,82.0,66.2,51.0,62.0,53.9,43.0,89,66,43,28.88,28.61,21,8,0,0.00
2013-5-14,97.0,75.0,59.0,69.0,61.7,56.0,97,69,26,28.63,28.41,21,4,0,0.00
2013-5-15,82.0,73.1,62.0,58.0,54.0,50.0,72,52,36,28.71,28.57,19,6,0,0.00
2013-5-16,83.0,65.2,58.0,70.0,39.2,-99.9,93,75,62,28.66,28.54,13,4,0,0.00
2013-5-17,84.0,72.2,64.0,69.0,61.2,-99.9,95,80,59,28.67,28.59,15,5,0,0.00
2013-5-18,83.0,74.3,64.0,73.0,68.2,63.0,95,82,66,28.67,28.48,22,9,0,0.00
2013-5-19,74.0,66.4,60.0,70.0,64.7,59.0,99,94,82,28.55,28.30,22,6,0,0.00
2013-5-20,74.0,65.5,58.0,65.0,60.4,57.0,99,85,66,28.43,28.30,16,8,0,0.00
2013-5-21,63.0,58.6,55.0,60.0,55.6,53.0,96,90,81,28.52,28.39,15,8,0,0.00
2013-5-22,60.0,54.8,51.0,56.0,53.2,50.0,99,94,87,28.76,28.52,13,8,0,0.00
2013-5-23,71.0,60.4,52.0,58.0,53.8,51.0,98,81,55,28.98,28.76,17,6,0,0.00
2013-5-24,72.0,63.1,53.0,60.0,55.4,50.0,91,77,62,29.04,28.79,19,10,0,0.00
2013-5-25,77.0,67.3,57.0,73.0,64.0,56.0,100,89,72,28.89,28.72,21,8,0,0.00
2013-5-26,79.0,69.4,64.0,75.0,67.7,63.0,98,94,88,28.78,28.61,16,9,0,0.00
2013-5-27,75.0,67.2,60.0,71.0,65.4,60.0,100,94,85,28.67,28.39,24,5,0,0.00
2013-5-28,77.0,69.8,61.0,70.0,66.4,61.0,99,89,70,28.53,28.39,15,3,0,0.00
2013-5-29,74.0,69.8,64.0,72.0,68.1,64.0,99,94,89,28.50,28.34,26,11,0,0.00
2013-5-30,75.0,68.3,61.0,69.0,65.2,59.0,97,90,81,28.40,28.30,16,8,0,0.00
2013-5-31,78.0,67.7,58.0,63.0,58.4,55.0,96,74,51,28.51,28.40,19,8,0,0.00
2013-6-1,64.0,58.5,54.0,59.0,55.8,52.0,96,91,76,28.81,28.46,21,10,0,0.00
2013-6-2,67.0,58.4,52.0,57.0,52.7,49.0,98,82,66,28.91,28.77,13,4,0,0.00
2013-6-3,73.0,63.4,53.0,62.0,56.9,52.0,95,80,62,28.82,28.60,23,9,0,0.00
2013-6-4,71.0,65.7,59.0,68.0,63.5,58.0,98,93,83,28.78,28.64,16,5,0,0.00
2013-6-5,72.0,64.4,58.0,65.0,58.1,55.0,99,81,63,28.84,28.74,12,4,0,0.00
2013-6-6,71.0,64.1,57.0,62.0,57.7,55.0,94,81,64,28.79,28.74,14,4,0,0.00
2013-6-7,72.0,62.6,53.0,61.0,57.1,52.0,97,83,65,28.82,28.67,10,2,0,0.00
2013-6-8,68.0,62.3,59.0,66.0,60.3,56.0,99,93,80,28.67,28.44,16,8,0,0.00
2013-6-9,69.0,64.2,61.0,65.0,62.1,60.0,99,93,86,28.63,28.49,14,7,0,0.00
2013-6-10,77.0,66.6,55.0,71.0,63.9,55.0,99,92,74,28.68,28.55,13,3,0,0.00
2013-6-11,85.0,76.2,68.0,77.0,71.2,66.0,95,85,68,28.62,28.47,14,5,0,0.00
2013-6-12,85.0,76.4,64.0,77.0,69.9,59.0,92,81,65,28.82,28.45,18,8,0,0.00
2013-6-13,76.0,67.0,58.0,66.0,61.8,57.0,96,84,63,28.88,28.76,10,3,0,0.00
2013-6-14,87.0,73.2,64.0,78.0,69.0,62.0,96,87,75,28.81,28.53,20,9,0,0.00
2013-6-15,80.0,72.7,65.0,74.0,69.7,64.0,98,91,76,28.74,28.59,12,4,0,0.00
2013-6-16,84.0,73.8,66.0,73.0,68.5,65.0,100,85,56,28.78,28.72,9,2,0,0.00
2013-6-17,83.0,72.2,64.0,68.0,65.1,62.0,94,79,57,28.81,28.73,7,1,0,0.00
2013-6-18,80.0,70.6,66.0,69.0,64.5,62.0,93,82,60,28.87,28.76,0,0,0,0.00
2013-6-19,83.0,74.5,66.0,73.0,68.5,64.0,94,82,66,28.79,28.66,16,7,0,0.00
2013-6-20,87.0,76.5,71.0,79.0,72.0,69.0,93,86,74,28.73,28.59,18,10,0,0.00
2013-6-22,87.0,82.2,69.0,78.0,73.7,67.0,94,76,68,28.76,28.56,23,12,0,0.00
2013-6-23,80.0,73.0,65.0,74.0,70.2,64.0,98,91,81,28.70,28.51,19,4,0,0.00
2013-6-24,81.0,75.5,66.0,77.0,73.0,65.0,97,93,86,28.69,28.48,15,6,0,0.00
2013-6-25,84.0,78.5,72.0,80.0,74.6,70.0,96,88,77,28.58,28.45,16,4,0,0.00
2013-6-26,90.0,80.2,74.0,77.0,72.9,70.0,97,80,53,28.68,28.46,11,5,0,0.00
2013-6-27,84.0,74.9,70.0,75.0,71.4,68.0,96,89,69,28.79,28.66,8,1,0,0.00
2013-6-28,83.0,73.6,69.0,71.0,68.1,65.0,95,84,56,28.78,28.70,17,6,0,0.00
2013-6-29,80.0,71.9,66.0,66.0,63.8,62.0,88,76,60,28.74,28.68,24,7,0,0.00
2013-6-30,78.0,67.7,58.0,64.0,61.1,57.0,97,81,58,28.89,28.73,13,2,0,0.00
2013-7-1,82.0,65.6,57.0,64.0,59.3,55.0,94,82,53,28.97,28.89,6,1,0,0.00
2013-7-2,80.0,67.3,60.0,68.0,63.2,59.0,96,87,61,28.95,28.84,12,1,0,0.00
2013-7-3,83.0,69.3,60.0,70.0,64.0,59.0,99,85,54,28.85,28.74,7,1,0,0.00
2013-7-4,81.0,67.8,63.0,68.0,63.2,60.0,92,86,63,28.77,28.71,11,6,0,0.00
2013-7-5,85.0,75.0,68.0,72.0,68.3,64.0,91,80,65,28.70,28.61,17,8,0,0.00
2013-7-6,85.0,76.6,71.0,75.0,70.1,67.0,89,81,69,28.65,28.58,17,9,0,0.00
2013-7-7,90.0,80.9,73.0,80.0,73.3,68.0,88,78,63,28.70,28.60,14,5,0,0.00
2013-7-8,86.0,78.8,74.0,79.0,74.4,-99.9,97,89,75,28.74,28.68,7,2,0,0.00
2013-7-9,93.0,83.3,75.0,80.0,76.8,73.0,94,82,63,28.74,28.63,8,3,0,0.00
2013-7-10,82.0,75.2,68.0,75.0,67.6,-99.9,96,81,64,28.88,28.74,10,3,0,0.00
2013-7-11,83.0,73.4,67.0,70.0,67.5,64.0,94,83,64,28.88,28.74,15,5,0,0.00
2013-7-12,88.0,78.0,69.0,78.0,71.4,66.0,91,80,71,28.77,28.68,19,11,0,0.00
2013-7-13,88.0,80.3,74.0,78.0,73.6,69.0,87,80,69,28.74,28.69,20,11,0,0.00
2013-7-14,85.0,75.7,71.0,73.0,69.2,66.0,89,81,60,28.93,28.74,17,10,0,0.00
2013-7-15,86.0,76.9,64.0,75.0,70.6,63.0,95,82,66,28.97,28.88,11,4,0,0.00
2013-7-16,88.0,76.8,71.0,76.0,71.9,69.0,95,86,61,29.03,28.94,12,2,0,0.00
2013-7-17,90.0,81.1,73.0,77.0,74.4,71.0,95,81,61,29.07,28.93,9,3,0,0.00
2013-7-18,91.0,81.1,73.0,76.0,74.2,71.0,94,81,59,28.94,28.71,14,7,0,0.00
2013-7-19,92.0,80.5,74.0,76.0,72.6,71.0,89,78,51,28.73,28.67,9,3,0,0.00
2013-7-20,86.0,74.9,67.0,71.0,66.9,-99.9,93,79,56,28.79,28.64,12,1,0,0.00
2013-7-21,88.0,78.0,70.0,77.0,72.8,69.0,96,85,66,28.71,28.55,12,3,0,0.00
2013-7-22,93.0,80.2,70.0,79.0,73.8,69.0,97,82,63,28.64,28.54,9,3,0,0.00
2013-7-23,80.0,72.9,65.0,71.0,67.7,64.0,97,84,68,28.79,28.63,9,3,0,0.00
2013-7-24,81.0,70.8,60.0,70.0,65.7,59.0,97,84,68,28.86,28.76,5,0,0,0.00
2013-7-25,81.0,73.8,70.0,73.0,69.8,67.0,97,88,70,28.83,28.75,15,5,0,0.00
2013-7-26,76.0,69.8,61.0,70.0,64.4,59.0,99,84,64,28.90,28.75,19,5,0,0.00
2013-7-27,71.0,60.1,54.0,59.0,56.0,53.0,97,88,62,28.92,28.80,17,2,0,0.00
2013-7-28,74.0,59.0,50.0,61.0,55.0,49.0,99,87,60,28.86,28.80,5,0,0,0.00
2013-7-29,66.0,63.8,60.0,65.0,60.9,56.0,99,91,77,28.84,28.79,14,5,0,0.00
2013-7-30,75.0,69.2,64.0,71.0,67.7,64.0,100,95,87,28.90,28.80,8,1,0,0.00
2013-7-31,83.0,73.1,61.0,73.0,68.8,61.0,100,87,70,28.92,28.82,5,0,0,0.00
2013-8-1,83.0,72.6,63.0,74.0,69.5,63.0,99,91,70,28.88,28.64,20,6,0,0.00
2013-8-2,82.0,73.4,67.0,75.0,70.1,65.0,98,90,76,28.80,28.66,16,4,0,0.00
2013-8-3,76.0,70.3,63.0,67.0,64.8,62.0,95,83,71,28.95,28.80,12,3,0,0.00
2013-8-4,77.0,69.5,60.0,71.0,65.4,58.0,95,87,76,28.96,28.79,14,5,0,0.00
2013-8-5,84.0,74.9,69.0,79.0,72.9,68.0,99,94,82,28.82,28.64,12,3,0,0.00
2013-8-6,86.0,76.6,68.0,80.0,73.7,67.0,99,92,78,28.70,28.58,12,3,0,0.00
2013-8-7,81.0,74.2,66.0,73.0,68.8,65.0,97,84,67,28.78,28.63,8,2,0,0.00
2013-8-8,75.0,70.4,66.0,71.0,67.6,65.0,95,91,82,28.82,28.74,8,1,0,0.00
2013-8-9,78.0,71.6,63.0,73.0,67.7,62.0,100,88,69,28.92,28.79,10,2,0,0.00
2013-8-10,81.0,70.7,60.0,72.0,66.7,60.0,99,88,73,28.98,28.85,10,3,0,0.00
2013-8-11,84.0,74.4,64.0,75.0,70.2,63.0,96,87,72,28.89,28.76,12,6,0,0.00
2013-8-21,90.0,79.7,71.0,79.0,74.0,69.0,95,84,69,28.77,28.71,15,7,0,0.00
2013-8-22,83.0,76.2,70.0,75.0,72.2,68.0,96,88,75,28.88,28.74,10,3,0,0.00
2013-8-23,87.0,78.3,71.0,77.0,73.3,70.0,96,86,66,28.85,28.74,15,6,0,0.00
2013-8-24,89.0,80.8,76.0,79.0,73.2,-99.9,91,81,71,28.83,28.76,17,10,0,0.00
2013-8-25,93.0,83.3,75.0,79.0,76.5,73.0,93,81,63,28.88,28.80,14,9,0,0.00
2013-8-26,94.0,83.4,74.0,79.0,76.1,72.0,94,79,61,28.85,28.72,15,8,0,0.00
2013-8-27,93.0,80.9,75.0,78.0,74.0,72.0,90,80,61,28.73,28.69,15,8,0,0.00
2013-9-24,70.0,64.8,58.0,64.0,61.4,57.0,97,89,82,28.69,28.50,8,3,0,0.00
2013-9-25,74.0,61.0,51.0,66.0,59.0,51.0,100,94,75,28.69,28.52,12,3,0,0.00
2013-9-26,77.0,67.8,63.0,68.0,64.2,61.0,96,89,68,28.59,28.54,18,12,0,0.00
2013-9-27,78.0,73.2,70.0,67.0,66.6,66.0,88,80,68,28.60,28.53,18,13,0,0.00
2013-9-28,75.0,61.7,54.0,68.0,55.5,-99.9,99,85,67,28.82,28.46,15,8,0,0.00
2013-9-29,66.0,52.4,48.0,55.0,50.0,47.0,96,92,67,28.82,28.80,15,4,0,0.00
2013-9-30,68.0,57.1,54.0,61.0,54.3,52.0,96,91,79,28.64,28.53,15,8,0,0.00
2013-10-18,50.0,42.3,35.0,43.0,38.9,34.0,98,88,69,28.90,28.77,10,3,0,0.00
2013-10-19,61.0,40.2,34.0,47.0,35.9,-99.9,99,91,61,28.77,28.59,9,2,0,0.00
2013-10-20,64.0,51.2,42.0,51.0,46.3,40.0,94,84,60,28.79,28.49,16,4,0,0.00
2013-10-21,54.0,41.6,32.0,46.0,39.3,32.0,100,92,72,28.87,28.71,8,1,0,0.00
2013-10-22,47.0,44.0,40.0,46.0,42.1,38.0,98,93,87,28.89,28.64,13,4,0,0.00
2013-10-23,49.0,40.0,33.0,46.0,39.0,33.0,100,96,88,28.96,28.81,9,2,0,0.00
2013-10-24,46.0,38.1,33.0,39.0,35.5,32.0,97,91,68,29.16,28.96,10,4,0,0.00